When you browse on this site, cookies collect data to enhance your experience and personalize the content and advertising you see.
Visit our Privacy Policy to learn more. By continuing to use the site, you agree to this use of cookies and data.
  • In Österreich
  • Länderverzeichnis
  • Für 7 Tage
  • Wassertemperatur
  • Satellitenkarten
  • Wetterkarte
  • News
  • Widgets
  • user-avatar
    Anmelden

    Stündliche Wetter Rondônia

    Heute, 18 April, Donnerstag

    Zeit Temperatur Niederschläge Wind Luftdruck Luftfeuchtigkeit
    00:00 +25°C° 0 mm 1 m/S 737 mmHg 98%
    01:00 +25°C° 0 mm 1 m/S 737 mmHg 98%
    02:00 +22°C° 0 mm 0 m/S 737 mmHg 98%
    03:00 +22°C° 0 mm 0 m/S 737 mmHg 98%
    04:00 +22°C° 0 mm 0 m/S 737 mmHg 98%
    05:00 +22°C° 0 mm 0 m/S 737 mmHg 98%
    06:00 +23°C° 0 mm 0 m/S 738 mmHg 95%
    07:00 +24°C° 0 mm 0 m/S 738 mmHg 92%
    08:00 +25°C° 0 mm 0 m/S 739 mmHg 89%
    09:00 +29°C° 0 mm 1 m/S 739 mmHg 76%
    10:00 +32°C° 0 mm 1 m/S 739 mmHg 64%
    11:00 +35°C° 0 mm 1 m/S 739 mmHg 51%
    12:00 +34°C° 0 mm 1 m/S 738 mmHg 53%
    13:00 +32°C° 0 mm 0 m/S 737 mmHg 55%
    14:00 +32°C° 0 mm 0 m/S 736 mmHg 57%
    15:00 +31°C° 0 mm 0 m/S 736 mmHg 62%
    16:00 +30°C° 0 mm 0 m/S 736 mmHg 67%
    17:00 +29°C° 0 mm 0 m/S 735 mmHg 72%
    18:00 +28°C° 0 mm 0 m/S 735 mmHg 76%
    19:00 +26°C° 0 mm 0 m/S 736 mmHg 80%
    20:00 +25°C° 0 mm 0 m/S 736 mmHg 84%
    21:00 +25°C° 0 mm 0 m/S 736 mmHg 86%
    22:00 +24°C° 0 mm 0 m/S 737 mmHg 88%
    23:00 +26°C° 0 mm 1 m/S 737 mmHg 90%

    Morgen, 19 April, Freitag

    Zeit Temperatur Niederschläge Wind Luftdruck Luftfeuchtigkeit
    00:00 +24°C° 0 mm 0 m/S 737 mmHg 90%
    01:00 +24°C° 0 mm 0 m/S 737 mmHg 91%
    02:00 +23°C° 0 mm 0 m/S 737 mmHg 91%
    03:00 +23°C° 0 mm 0 m/S 737 mmHg 92%
    04:00 +23°C° 0 mm 0 m/S 737 mmHg 92%
    05:00 +23°C° 0 mm 0 m/S 737 mmHg 92%
    06:00 +24°C° 0 mm 0 m/S 738 mmHg 87%
    07:00 +25°C° 0 mm 0 m/S 738 mmHg 83%
    08:00 +26°C° 0 mm 0 m/S 739 mmHg 78%
    09:00 +29°C° 0 mm 0 m/S 739 mmHg 67%
    10:00 +32°C° 0 mm 0 m/S 739 mmHg 57%
    11:00 +36°C° 0 mm 1 m/S 739 mmHg 47%
    12:00 +36°C° 0 mm 1 m/S 738 mmHg 46%
    13:00 +36°C° 0 mm 1 m/S 737 mmHg 46%
    14:00 +36°C° 0 mm 1 m/S 736 mmHg 46%
    15:00 +35°C° 0 mm 1 m/S 736 mmHg 50%
    16:00 +35°C° 0 mm 1 m/S 736 mmHg 54%
    17:00 +34°C° 0 mm 1 m/S 735 mmHg 59%
    18:00 +32°C° 0 mm 1 m/S 735 mmHg 65%
    19:00 +30°C° 0 mm 1 m/S 736 mmHg 71%
    20:00 +28°C° 0 mm 1 m/S 736 mmHg 78%
    21:00 +28°C° 0 mm 1 m/S 737 mmHg 80%
    22:00 +27°C° 0 mm 1 m/S 737 mmHg 83%
    23:00 +27°C° 0 mm 1 m/S 738 mmHg 86%

    übermorgen, 20 April, Samstag

    Zeit Temperatur Niederschläge Wind Luftdruck Luftfeuchtigkeit
    00:00 +27°C° 0 mm 1 m/S 737 mmHg 87%
    01:00 +26°C° 0 mm 1 m/S 737 mmHg 88%
    02:00 +26°C° 0 mm 1 m/S 737 mmHg 89%
    03:00 +24°C° 0 mm 0 m/S 737 mmHg 90%
    04:00 +24°C° 0 mm 0 m/S 737 mmHg 91%
    05:00 +23°C° 0 mm 0 m/S 737 mmHg 91%
    06:00 +25°C° 0 mm 0 m/S 738 mmHg 86%
    07:00 +26°C° 0 mm 0 m/S 738 mmHg 81%
    08:00 +27°C° 0 mm 0 m/S 739 mmHg 76%
    09:00 +30°C° 0 mm 0 m/S 739 mmHg 65%
    10:00 +32°C° 0 mm 0 m/S 739 mmHg 54%
    11:00 +37°C° 0 mm 1 m/S 739 mmHg 43%
    12:00 +34°C° 0 mm 0 m/S 738 mmHg 47%
    13:00 +33°C° 0 mm 0 m/S 737 mmHg 51%
    14:00 +33°C° 0 mm 0 m/S 736 mmHg 55%
    15:00 +32°C° 0 mm 0 m/S 736 mmHg 57%
    16:00 +32°C° 0 mm 0 m/S 735 mmHg 59%
    17:00 +31°C° 0 mm 0 m/S 735 mmHg 61%
    18:00 +30°C° 0 mm 0 m/S 736 mmHg 66%
    19:00 +28°C° 0 mm 0 m/S 736 mmHg 71%
    20:00 +29°C° 0 mm 1 m/S 736 mmHg 76%
    21:00 +28°C° 0 mm 1 m/S 737 mmHg 80%
    22:00 +27°C° 0 mm 1 m/S 737 mmHg 85%
    23:00 +24°C° 0 mm 0 m/S 738 mmHg 89%

    21 April, Sonntag

    Zeit Temperatur Niederschläge Wind Luftdruck Luftfeuchtigkeit
    00:00 +24°C° 0.1 mm 0 m/S 737 mmHg 90%
    01:00 +24°C° 0.1 mm 0 m/S 737 mmHg 91%
    02:00 +24°C° 0.1 mm 0 m/S 737 mmHg 92%
    03:00 +23°C° 0 mm 0 m/S 737 mmHg 93%
    04:00 +23°C° 0 mm 0 m/S 737 mmHg 94%
    05:00 +23°C° 0 mm 0 m/S 737 mmHg 95%
    06:00 +24°C° 0 mm 0 m/S 737 mmHg 91%
    07:00 +27°C° 0 mm 1 m/S 738 mmHg 86%
    08:00 +28°C° 0 mm 1 m/S 739 mmHg 82%
    09:00 +29°C° 0.8 mm 1 m/S 738 mmHg 82%
    10:00 +30°C° 0.8 mm 1 m/S 738 mmHg 83%
    11:00 +31°C° 0.8 mm 1 m/S 738 mmHg 83%
    12:00 +31°C° 1.1 mm 1 m/S 737 mmHg 82%
    13:00 +31°C° 1.1 mm 1 m/S 736 mmHg 81%
    14:00 +31°C° 1.1 mm 1 m/S 736 mmHg 79%
    15:00 +31°C° 0.9 mm 1 m/S 735 mmHg 83%
    16:00 +30°C° 0.9 mm 1 m/S 735 mmHg 87%
    17:00 +30°C° 0.9 mm 1 m/S 735 mmHg 91%
    18:00 +29°C° 0.4 mm 1 m/S 735 mmHg 93%
    19:00 +27°C° 0.4 mm 1 m/S 736 mmHg 95%
    20:00 +24°C° 0.4 mm 0 m/S 736 mmHg 97%
    21:00 +26°C° 0 mm 1 m/S 736 mmHg 98%
    22:00 +26°C° 0 mm 1 m/S 737 mmHg 98%
    23:00 +26°C° 0 mm 1 m/S 737 mmHg 98%

    22 April, Montag

    Zeit Temperatur Niederschläge Wind Luftdruck Luftfeuchtigkeit
    00:00 +25°C° 0 mm 1 m/S 736 mmHg 98%
    01:00 +25°C° 0 mm 1 m/S 736 mmHg 98%
    02:00 +25°C° 0 mm 1 m/S 736 mmHg 98%
    03:00 +23°C° 0 mm 0 m/S 736 mmHg 98%
    04:00 +23°C° 0 mm 0 m/S 736 mmHg 98%
    05:00 +23°C° 0 mm 0 m/S 736 mmHg 99%
    06:00 +23°C° 0.4 mm 0 m/S 737 mmHg 97%
    07:00 +24°C° 0.4 mm 0 m/S 738 mmHg 96%
    08:00 +27°C° 0.4 mm 1 m/S 738 mmHg 95%
    09:00 +28°C° 1.6 mm 1 m/S 738 mmHg 92%
    10:00 +29°C° 1.6 mm 1 m/S 738 mmHg 90%
    11:00 +30°C° 1.6 mm 1 m/S 738 mmHg 87%
    12:00 +30°C° 1.7 mm 1 m/S 737 mmHg 88%
    13:00 +30°C° 1.7 mm 1 m/S 737 mmHg 88%
    14:00 +31°C° 1.7 mm 1 m/S 736 mmHg 89%
    15:00 +30°C° 1.4 mm 1 m/S 736 mmHg 91%
    16:00 +29°C° 1.4 mm 1 m/S 736 mmHg 94%
    17:00 +26°C° 1.4 mm 0 m/S 735 mmHg 96%
    18:00 +25°C° 0.1 mm 0 m/S 736 mmHg 96%
    19:00 +24°C° 0.1 mm 0 m/S 737 mmHg 96%
    20:00 +24°C° 0.1 mm 0 m/S 737 mmHg 96%
    21:00 +23°C° 0.3 mm 0 m/S 738 mmHg 96%
    22:00 +23°C° 0.3 mm 0 m/S 738 mmHg 96%
    23:00 +23°C° 0.3 mm 0 m/S 738 mmHg 97%

    23 April, Dienstag

    Zeit Temperatur Niederschläge Wind Luftdruck Luftfeuchtigkeit
    00:00 +23°C° 1.2 mm 0 m/S 738 mmHg 97%
    01:00 +25°C° 1.2 mm 1 m/S 738 mmHg 98%
    02:00 +24°C° 1.2 mm 1 m/S 738 mmHg 98%
    03:00 +24°C° 0.3 mm 1 m/S 738 mmHg 99%
    04:00 +24°C° 0.3 mm 1 m/S 738 mmHg 99%
    05:00 +24°C° 0.3 mm 1 m/S 738 mmHg 99%
    06:00 +24°C° 0.2 mm 1 m/S 739 mmHg 99%
    07:00 +24°C° 0.2 mm 1 m/S 740 mmHg 98%
    08:00 +24°C° 0.2 mm 2 m/S 740 mmHg 98%
    09:00 +24°C° 0.2 mm 2 m/S 741 mmHg 97%
    10:00 +24°C° 0.2 mm 2 m/S 741 mmHg 97%
    11:00 +23°C° 0.2 mm 1 m/S 741 mmHg 96%
    12:00 +24°C° 0.1 mm 1 m/S 740 mmHg 91%
    13:00 +25°C° 0.1 mm 1 m/S 739 mmHg 86%
    14:00 +26°C° 0.1 mm 1 m/S 738 mmHg 81%
    15:00 +27°C° 0 mm 1 m/S 738 mmHg 80%
    16:00 +25°C° 0 mm 0 m/S 738 mmHg 78%
    17:00 +26°C° 0 mm 0 m/S 738 mmHg 76%
    18:00 +25°C° 0 mm 0 m/S 738 mmHg 80%
    19:00 +24°C° 0 mm 0 m/S 739 mmHg 85%
    20:00 +22°C° 0 mm 0 m/S 739 mmHg 89%
    21:00 +22°C° 0 mm 0 m/S 739 mmHg 90%
    22:00 +22°C° 0 mm 0 m/S 740 mmHg 91%
    23:00 +22°C° 0 mm 0 m/S 740 mmHg 93%
    Mehr zeigen